Temperature
19 17 17 18 18 19 19 19 18 19 20 19 18 18 18 18 19 19 19 19 19 20 20 20 20 19 19 19 18 18 18 18 17 17 17 17 17 16 16 16 16 16 16 16
18 18 19 19 19 19 19 19 19 19 20 19 18 18 18 18 18 19 19 19 20 20 19 20 19 19 19 19 19 18 18 18 17 17 17 17 17 17 16 16 16 16 16 16
18 19 20 20 20 19 19 19 19 19 19 19 19 18 18 18 19 19 19 20 20 20 20 20 19 19 19 19 19 18 18 18 18 17 17 17 17 17 16 16 16 16 16 16
19 20 20 20 20 20 19 20 20 19 18 17 19 17 18 17 18 18 19 19 20 20 20 20 20 19 19 19 19 19 18 18 18 17 17 17 17 17 17 16 16 16 16 16
19 19 20 20 20 20 19 20 20 19 18 17 18 17 17 17 18 18 19 19 20 20 20 20 20 20 20 19 19 19 18 18 18 18 17 17 17 17 17 16 16 16 16 16
19 20 20 20 20 20 20 19 19 17 17 17 18 17 17 17 18 19 19 20 20 20 20 20 20 20 20 19 19 19 19 18 18 18 18 17 17 17 17 17 17 16 16 16
19 20 20 21 20 20 19 17 17 17 17 17 18 18 18 19 19 20 20 20 21 21 20 20 20 20 20 19 19 19 19 19 18 18 18 18 17 17 17 17 17 17 16 16
18 18 20 20 20 19 18 17 17 17 17 17 18 18 19 21 21 21 21 21 21 21 21 21 20 20 20 20 20 19 19 19 18 18 18 18 17 17 17 17 17 17 16 16
18 18 20 21 21 20 19 17 17 17 18 17 18 19 20 21 20 20 21 21 20 21 21 21 21 20 20 20 20 20 19 19 19 18 18 18 17 17 17 17 17 17 16 16
19 18 20 21 21 20 19 18 17 17 17 17 18 18 18 20 20 20 20 20 20 20 21 21 21 21 20 20 20 20 19 19 19 18 18 18 18 17 17 17 17 17 16 16
19 18 19 20 20 20 19 19 18 16 17 17 17 18 19 19 19 19 20 20 20 20 20 21 21 21 20 20 20 19 19 19 19 18 18 18 18 18 17 17 17 17 16 16
19 17 18 19 20 20 20 19 18 17 17 17 17 18 20 19 20 20 20 20 21 21 21 21 21 20 20 20 20 19 19 19 19 18 18 18 18 18 17 17 17 17 17 16
19 18 18 18 19 20 20 20 18 17 16 16 17 18 20 19 20 20 21 21 21 20 20 20 20 20 20 20 20 19 19 19 19 18 18 18 18 18 17 17 17 17 16 16
19 17 18 18 19 19 20 20 19 18 17 17 18 18 19 19 19 20 20 20 20 20 20 20 20 20 20 20 19 19 19 19 19 18 18 18 18 18 17 17 17 17 16 16
19 18 19 19 20 20 20 20 20 19 18 18 18 18 19 19 19 20 20 20 20 20 20 20 20 20 20 20 19 19 19 19 19 18 18 18 18 17 17 17 17 16 16 16
18 19 19 19 20 20 20 20 20 20 19 19 19 19 19 19 20 20 20 20 20 20 20 20 20 20 20 20 20 19 19 19 19 18 18 18 18 17 17 17 17 16 16 16
17 18 18 18 19 19 19 20 20 20 20 19 19 19 19 19 19 20 20 21 21 21 21 20 20 20 20 20 20 20 19 19 19 18 18 18 17 17 17 17 16 16 16 16
17 17 16 17 18 19 19 20 20 20 20 20 19 19 19 19 20 20 20 21 21 21 21 20 20 20 20 20 20 20 19 19 19 18 18 18 17 17 17 16 16 16 16 15
17 17 16 16 17 18 20 21 20 20 20 20 19 19 19 20 20 19 20 21 21 21 21 20 20 20 20 20 20 19 19 19 18 18 18 17 17 17 16 16 16 15 15 15
17 16 16 16 17 18 19 21 21 20 19 20 20 19 19 19 17 17 20 20 20 20 20 20 20 20 20 19 19 19 19 18 18 18 18 17 17 16 16 16 16 15 15 14
17 16 16 16 17 17 19 20 21 19 19 20 20 20 20 19 19 20 20 20 20 20 20 20 19 19 19 19 19 19 18 18 18 18 17 17 16 16 16 15 15 15 14 14
17 17 16 15 16 17 19 19 19 19 20 20 21 21 21 21 20 20 20 19 19 19 19 19 19 19 19 19 19 18 18 18 17 17 17 16 16 16 15 15 15 14 14 14
16 17 16 16 17 18 20 20 21 21 21 21 21 21 21 20 20 20 19 19 19 19 19 19 19 18 18 18 18 18 18 17 17 17 16 16 16 15 15 14 14 14 13 13
16 16 16 16 17 18 20 20 21 21 21 21 21 21 20 20 19 19 19 19 18 18 18 18 18 18 17 17 17 17 17 17 17 16 16 16 15 15 14 14 14 13 13 13
16 16 15 16 17 18 19 20 20 20 20 20 20 20 20 19 19 19 18 18 18 18 18 18 17 17 17 17 17 17 16 16 16 16 16 15 15 14 14 14 13 13 13 12
15 16 16 16 17 17 18 19 20 19 19 19 19 19 19 19 19 19 18 18 17 17 17 17 17 17 16 16 16 16 16 16 15 15 15 14 14 14 13 13 13 12 12 11
Wind_Speed
1 3 2 4 5 4 5 4 4 3 4 5 5 5 6 7 7 8 8 7 7 7 7 7 9 10 9 9 9 8 7 6 6 4 4 3 2 1 2 3 6 8 9 9
4 1 5 4 4 4 4 4 3 2 3 4 5 4 5 6 9 10 10 9 9 7 5 7 8 9 9 9 8 8 8 7 6 4 4 3 3 2 1 2 4 6 7 8
3 3 2 4 4 5 3 5 5 4 1 2 3 1 4 4 6 7 9 9 10 11 10 10 9 9 9 9 10 10 9 8 7 6 4 4 3 3 2 2 2 2 5 6
1 1 2 3 2 4 2 4 6 5 4 2 4 3 5 7 7 9 10 11 11 11 10 10 11 10 10 10 9 9 9 8 7 7 7 6 4 3 3 2 1 1 3 4
1 1 2 2 2 3 4 4 5 4 3 0 1 3 5 5 8 12 12 13 12 11 12 12 12 12 10 10 10 9 9 8 7 7 8 7 5 3 2 1 1 1 1 2
2 1 2 3 2 3 4 5 5 4 3 1 5 4 5 7 12 12 12 12 12 11 12 11 11 9 8 8 9 9 9 8 7 8 7 8 7 6 4 3 2 1 0 1
2 2 1 2 3 3 5 6 3 2 1 4 4 4 7 9 11 14 14 13 11 11 11 11 10 10 9 10 10 10 10 8 8 8 7 8 8 7 7 5 4 3 2 1
1 2 3 3 4 4 3 6 5 3 3 3 1 4 6 6 7 10 11 11 11 11 11 12 12 12 11 11 11 11 10 9 8 8 7 7 7 5 5 5 5 5 4 3
5 3 3 4 4 7 4 4 5 4 1 0 2 3 5 2 2 6 8 9 11 12 11 12 11 11 11 11 11 12 11 9 8 8 7 6 6 6 6 5 5 4 4 3
6 3 3 2 1 1 4 5 4 4 2 1 2 2 3 3 3 5 8 10 11 11 10 10 10 11 11 10 10 10 10 9 8 7 7 6 6 6 5 5 5 5 5 4
4 4 1 0 4 5 2 2 4 3 4 4 1 4 4 6 5 6 9 10 11 11 11 10 9 9 9 8 9 9 9 8 7 7 6 5 5 5 5 5 5 5 4 5
4 5 2 5 5 4 4 4 5 4 2 3 3 5 6 4 4 5 7 8 10 10 10 9 8 8 8 9 9 9 8 8 7 7 6 6 5 5 5 5 5 5 5 4
5 5 3 4 5 1 1 2 4 4 3 3 3 5 4 1 1 3 5 7 8 9 8 7 7 8 8 9 9 8 8 8 7 7 7 6 5 6 5 5 4 4 5 4
5 4 5 6 5 4 3 3 4 5 3 3 4 4 4 0 1 1 4 6 8 8 9 9 8 8 8 8 9 8 8 7 7 7 7 7 6 6 5 5 4 4 5 4
5 4 4 4 3 2 3 4 6 5 7 6 5 4 5 5 5 5 4 6 7 8 9 9 9 8 8 8 8 8 8 7 7 8 7 7 6 5 5 4 4 4 4 5
3 3 2 1 1 1 0 3 4 5 4 5 4 4 5 3 3 4 5 7 8 8 9 9 8 8 9 9 9 8 8 8 8 8 8 6 6 5 5 5 4 4 4 4
3 4 3 2 2 3 2 5 5 4 5 7 6 6 3 3 4 5 6 7 9 9 8 8 9 9 9 10 10 10 9 8 8 8 7 6 7 6 5 5 5 5 5 4
6 5 3 1 3 2 7 4 4 4 3 5 5 5 6 6 4 2 3 6 7 7 8 8 7 8 8 8 8 8 7 8 8 7 7 7 7 6 5 5 5 4 4 4
7 7 4 3 2 3 5 2 4 5 2 3 6 6 5 4 4 3 1 4 6 6 6 6 6 6 6 7 7 7 7 7 7 7 7 7 7 7 6 6 5 4 4 4
4 5 5 4 4 5 7 5 2 5 1 3 5 6 6 6 4 4 4 4 4 4 4 4 4 4 5 5 7 8 7 7 7 7 7 7 7 7 7 6 5 4 4 4
2 3 4 4 4 5 7 4 3 4 6 4 5 7 7 6 6 5 4 4 4 4 4 4 5 4 4 5 8 8 7 7 7 6 5 5 6 6 6 5 4 4 4 4
6 4 4 5 4 6 4 3 5 6 3 3 4 5 6 5 5 4 5 5 5 4 4 5 5 3 2 4 7 7 6 6 5 5 5 5 4 5 5 5 4 4 5 4
5 7 6 7 6 5 3 5 5 5 4 3 4 4 7 7 5 5 5 5 5 5 4 4 5 4 3 3 6 7 5 4 6 6 5 4 4 3 4 5 5 3 4 4
2 2 4 2 2 2 1 1 2 3 4 3 4 6 8 7 6 6 5 4 4 4 4 4 6 5 3 2 3 4 4 5 7 6 5 5 5 4 3 3 3 4 4 4
3 2 3 2 2 1 2 1 2 2 4 5 4 4 6 8 6 6 5 5 4 3 3 5 6 5 3 2 3 3 4 6 6 5 5 5 4 4 4 3 2 3 3 4
4 5 5 6 7 5 5 4 4 4 4 5 5 3 3 6 7 6 5 4 4 4 4 5 5 5 4 4 4 3 4 6 7 5 4 4 4 3 4 4 2 3 2 2
Wind_Direction
48 79 182 208 187 164 156 153 158 205 188 146 159 173 186 186 176 181 186 186 186 196 200 172 160 156 152 151 150 152 146 146 136 126 121 111 104 75 51 60 69 68 68 72
49 318 236 197 161 149 150 146 146 132 153 146 162 197 197 190 195 193 192 196 196 196 195 177 161 160 162 164 163 159 158 157 153 149 148 144 139 129 111 59 58 66 69 73
157 231 182 139 133 147 165 167 168 159 112 91 136 258 226 222 213 208 206 204 198 195 191 181 170 171 169 170 172 169 169 163 158 148 124 100 76 59 49 40 24 39 71 76
58 243 117 108 133 142 173 184 157 143 126 210 179 211 252 217 220 218 215 208 202 199 192 183 177 177 180 182 176 170 168 164 160 150 144 146 150 163 191 181 187 37 67 78
211 161 128 151 200 156 184 172 144 141 130 100 219 172 265 204 218 222 216 209 205 198 190 186 184 183 184 177 172 171 166 166 163 157 157 156 161 173 168 150 140 90 33 66
213 211 160 170 158 144 129 81 54 55 82 268 224 182 250 212 211 212 209 203 199 193 190 190 189 178 177 172 168 165 164 170 167 161 161 164 166 165 159 168 164 169 291 12
357 328 252 134 102 55 92 95 56 6 356 251 217 187 243 229 212 204 199 197 193 187 183 184 182 178 175 173 172 170 168 175 176 168 171 175 174 173 179 182 179 178 182 199
149 271 230 193 167 166 158 139 154 188 219 273 263 221 258 253 213 195 189 183 178 178 182 186 186 182 180 178 176 174 174 180 181 179 182 182 180 180 187 188 181 186 193 198
172 238 250 205 175 150 149 179 175 146 199 263 283 292 320 357 161 170 169 170 180 183 185 188 187 183 181 180 181 179 179 182 186 185 182 185 188 186 187 188 180 183 193 191
152 175 256 234 104 202 165 159 121 135 158 206 296 282 256 252 219 188 177 177 183 186 187 186 187 186 184 181 179 176 177 183 186 183 183 187 189 184 178 168 171 180 188 179
135 140 260 131 195 202 154 152 137 135 154 154 218 280 248 224 215 194 186 182 178 180 182 184 186 183 177 170 168 170 175 174 175 177 175 166 174 174 165 167 175 176 178 168
147 126 196 251 258 197 167 177 145 150 199 169 165 270 285 226 204 183 181 180 178 177 177 178 180 174 171 171 172 174 176 174 177 174 167 165 164 163 166 175 180 173 168 171
138 118 91 352 340 358 174 185 154 140 128 153 165 264 309 344 131 171 175 176 174 170 169 169 172 174 177 178 177 176 179 180 174 164 164 165 167 170 177 182 180 171 170 169
125 116 155 184 216 211 199 199 170 141 159 195 208 234 303 263 208 212 181 174 168 167 169 172 179 183 181 180 181 180 185 182 171 166 167 174 181 181 181 177 174 173 170 163
108 144 191 211 218 194 197 208 191 181 183 184 211 213 242 225 207 200 186 168 157 164 171 178 185 189 185 182 185 185 186 181 172 168 176 188 185 173 166 166 168 163 162 165
106 146 137 316 309 62 253 238 197 200 188 181 180 240 244 234 178 175 178 170 166 169 175 180 184 185 187 188 187 185 186 183 173 175 184 182 171 168 171 173 168 167 170 163
140 134 128 258 313 40 296 241 199 188 190 175 198 223 204 164 180 191 183 179 177 179 183 186 189 191 192 191 186 187 190 179 174 179 179 176 174 176 182 176 167 174 174 161
149 132 135 147 57 221 251 251 180 164 199 188 180 188 185 183 182 178 173 173 178 183 187 194 192 194 196 193 189 184 173 171 176 179 180 179 175 176 175 170 179 183 171 164
156 146 136 139 170 264 289 265 168 158 240 206 178 179 170 145 80 13 250 166 170 174 176 183 188 185 185 186 179 164 166 168 171 181 186 184 178 177 174 179 187 184 170 170
124 129 134 139 157 219 243 260 187 114 298 264 173 174 168 128 130 235 230 176 152 149 150 155 153 148 161 178 161 153 163 165 182 190 187 179 173 172 177 182 177 164 159 170
109 106 143 161 189 252 255 263 101 133 233 238 172 165 158 165 189 196 172 154 140 133 137 133 127 139 171 165 150 154 163 185 196 178 162 162 170 172 171 165 157 151 152 150
173 164 179 157 173 241 257 123 155 205 215 176 165 162 157 159 149 141 142 143 135 123 117 118 116 117 127 142 149 158 179 194 165 144 146 157 162 164 158 150 153 150 148 152
185 185 178 179 201 225 199 173 189 164 154 168 161 156 145 139 142 143 141 140 135 133 125 115 116 106 84 111 149 162 184 160 141 138 146 150 143 140 140 148 153 147 152 164
272 145 129 147 235 222 202 152 135 143 148 157 149 146 143 143 147 146 145 148 143 137 134 123 117 111 99 95 125 156 158 142 138 146 151 145 140 132 124 133 150 156 168 178
223 118 121 159 221 73 336 215 148 102 108 108 104 131 149 145 144 150 154 157 156 143 133 127 129 129 129 109 107 118 131 130 129 133 136 136 138 141 131 120 138 166 191 192
211 175 167 206 207 180 222 230 161 136 140 139 127 119 134 143 147 146 154 158 153 144 129 122 120 122 120 109 101 94 113 126 128 125 128 135 137 134 132 126 85 41 72 118
Height
1521 1526 1530 1528 1527 1528 1530 1535 1538 1536 1531 1535 1538 1539 1539 1539 1541 1542 1544 1545 1547 1549 1551 1553 1554 1556 1558 1560 1561 1562 1564 1565 1565 1566 1566 1566 1566 1566 1566 1566 1566 1565 1565 1565
1526 1529 1523 1522 1523 1526 1530 1536 1537 1535 1531 1534 1539 1540 1538 1538 1539 1539 1541 1543 1545 1547 1550 1551 1553 1555 1557 1559 1560 1562 1563 1564 1565 1566 1566 1566 1567 1567 1566 1566 1566 1566 1566 1565
1528 1525 1520 1521 1525 1528 1531 1534 1535 1536 1534 1534 1539 1544 1540 1538 1538 1539 1540 1541 1543 1545 1547 1549 1551 1554 1556 1558 1559 1561 1562 1564 1565 1565 1566 1566 1567 1567 1566 1567 1567 1567 1566 1566
1525 1521 1521 1523 1526 1527 1534 1528 1529 1533 1540 1547 1542 1555 1543 1538 1537 1536 1537 1538 1539 1542 1544 1547 1549 1552 1554 1556 1558 1560 1561 1563 1564 1565 1565 1566 1566 1566 1567 1567 1567 1567 1567 1566
1526 1522 1523 1526 1525 1525 1528 1525 1528 1532 1539 1546 1544 1551 1546 1536 1537 1534 1533 1534 1536 1538 1541 1544 1546 1549 1552 1554 1556 1559 1560 1562 1563 1564 1565 1565 1566 1566 1567 1567 1567 1567 1567 1567
1522 1520 1521 1522 1521 1522 1524 1528 1532 1537 1543 1554 1545 1549 1546 1535 1529 1527 1528 1530 1532 1535 1538 1541 1544 1547 1550 1553 1555 1557 1559 1561 1562 1563 1564 1565 1565 1566 1566 1566 1566 1567 1567 1567
1527 1523 1520 1520 1523 1524 1527 1540 1554 1556 1558 1554 1539 1542 1538 1521 1517 1519 1522 1525 1529 1532 1535 1539 1542 1545 1548 1550 1553 1555 1557 1559 1561 1562 1563 1564 1564 1565 1565 1566 1566 1566 1566 1566
1535 1535 1522 1520 1522 1527 1530 1537 1554 1561 1560 1552 1539 1540 1527 1513 1512 1514 1518 1522 1526 1530 1533 1536 1539 1542 1544 1547 1550 1552 1555 1557 1559 1560 1561 1563 1563 1564 1564 1565 1566 1566 1566 1566
1532 1532 1519 1517 1518 1522 1530 1535 1535 1545 1548 1552 1545 1533 1521 1512 1513 1514 1517 1521 1524 1527 1530 1533 1536 1539 1542 1545 1547 1550 1553 1555 1557 1559 1560 1561 1562 1563 1563 1564 1564 1565 1565 1566
1521 1530 1521 1517 1517 1518 1521 1526 1537 1545 1553 1557 1547 1539 1534 1520 1517 1515 1516 1518 1521 1525 1528 1531 1534 1537 1540 1542 1545 1548 1551 1553 1555 1557 1558 1559 1560 1561 1562 1563 1563 1564 1564 1565
1516 1527 1526 1521 1523 1523 1524 1527 1532 1541 1543 1553 1555 1545 1519 1517 1514 1514 1514 1516 1518 1522 1525 1529 1532 1535 1538 1541 1544 1546 1549 1551 1553 1554 1556 1557 1559 1560 1561 1561 1562 1563 1563 1564
1514 1525 1532 1525 1516 1514 1517 1521 1528 1541 1544 1544 1548 1542 1513 1512 1511 1512 1513 1514 1517 1520 1524 1527 1530 1533 1536 1539 1542 1544 1546 1548 1550 1552 1554 1556 1557 1558 1559 1560 1561 1562 1562 1563
1512 1524 1536 1535 1529 1520 1519 1518 1521 1529 1538 1543 1548 1538 1512 1511 1511 1512 1513 1514 1516 1519 1523 1526 1529 1531 1534 1536 1539 1542 1544 1546 1549 1550 1552 1554 1555 1556 1557 1558 1559 1560 1561 1561
1507 1520 1530 1536 1530 1521 1520 1518 1518 1527 1538 1540 1536 1529 1517 1513 1512 1512 1513 1514 1516 1519 1522 1525 1527 1530 1532 1534 1537 1540 1542 1544 1547 1548 1550 1551 1553 1554 1555 1556 1557 1558 1559 1559
1507 1519 1518 1517 1514 1514 1515 1515 1516 1521 1524 1530 1527 1524 1517 1513 1512 1512 1512 1514 1516 1518 1521 1523 1526 1528 1530 1533 1535 1537 1540 1542 1544 1546 1548 1549 1551 1552 1553 1554 1555 1556 1556 1557
1508 1516 1516 1517 1513 1513 1515 1513 1513 1515 1516 1519 1520 1520 1512 1511 1511 1511 1512 1514 1515 1517 1520 1522 1524 1526 1528 1530 1533 1535 1538 1540 1542 1543 1545 1547 1548 1549 1550 1551 1552 1553 1554 1554
1511 1515 1522 1526 1518 1517 1523 1512 1511 1512 1511 1513 1518 1515 1510 1511 1510 1511 1512 1513 1514 1516 1518 1520 1522 1524 1526 1528 1530 1533 1535 1537 1539 1540 1542 1544 1545 1546 1547 1548 1549 1550 1551 1552
1509 1515 1523 1527 1526 1533 1518 1504 1504 1507 1508 1506 1507 1507 1508 1509 1510 1510 1511 1512 1513 1515 1517 1519 1520 1522 1524 1526 1528 1530 1532 1534 1536 1537 1539 1540 1542 1543 1544 1545 1546 1547 1548 1549
1501 1511 1522 1530 1531 1525 1512 1504 1503 1507 1509 1504 1505 1506 1507 1508 1509 1511 1511 1512 1513 1514 1516 1517 1519 1521 1523 1524 1526 1528 1530 1531 1533 1534 1536 1537 1539 1540 1541 1542 1543 1544 1545 1546
1500 1505 1517 1526 1529 1531 1514 1501 1499 1503 1512 1504 1503 1504 1505 1507 1514 1513 1511 1511 1512 1513 1515 1516 1518 1519 1521 1522 1524 1525 1527 1528 1530 1531 1533 1534 1536 1537 1538 1539 1540 1541 1542 1543
1507 1511 1517 1522 1525 1519 1503 1498 1500 1516 1514 1502 1501 1502 1503 1505 1507 1508 1509 1510 1511 1512 1514 1515 1516 1517 1519 1520 1522 1523 1524 1525 1527 1529 1530 1532 1533 1534 1535 1536 1537 1538 1539 1540
1506 1511 1515 1520 1525 1520 1498 1498 1503 1504 1499 1500 1500 1501 1502 1503 1505 1507 1508 1509 1510 1511 1512 1513 1514 1516 1517 1519 1520 1520 1522 1523 1525 1526 1528 1529 1530 1531 1532 1533 1534 1535 1536 1537
1499 1500 1503 1507 1508 1498 1496 1496 1497 1497 1498 1499 1500 1500 1501 1502 1504 1506 1507 1508 1509 1510 1511 1512 1513 1515 1516 1517 1518 1519 1520 1522 1523 1524 1525 1526 1528 1529 1530 1531 1531 1532 1533 1534
1494 1492 1496 1500 1498 1495 1495 1495 1496 1496 1497 1498 1499 1499 1501 1502 1503 1505 1506 1507 1508 1509 1510 1511 1512 1513 1515 1516 1517 1517 1519 1520 1521 1521 1522 1524 1525 1526 1527 1528 1529 1529 1530 1531
1492 1492 1495 1498 1495 1495 1494 1495 1495 1496 1497 1498 1498 1499 1500 1501 1502 1504 1505 1506 1507 1508 1509 1510 1511 1512 1513 1514 1515 1516 1517 1518 1518 1519 1520 1521 1522 1523 1524 1525 1526 1527 1528 1528
1488 1490 1493 1495 1491 1492 1493 1493 1494 1495 1496 1497 1498 1498 1500 1500 1501 1502 1503 1505 1506 1507 1508 1509 1510 1511 1512 1513 1514 1515 1515 1516 1516 1517 1518 1519 1520 1521 1521 1522 1523 1524 1525 1526